When you browse on this site, cookies collect data to enhance your experience and personalize the content and advertising you see.
Visit our Privacy Policy to learn more. By continuing to use the site, you agree to this use of cookies and data.

Hourly Weather Montpellier

Today, 3 August, Monday

Time Temperature Precipitation Wind Pressure Humidity
00:00 +23°C° 0 mm 5 mps 757 mmHg 61%
01:00 +22°C° 0 mm 5 mps 757 mmHg 62%
02:00 +22°C° 0 mm 5 mps 757 mmHg 63%
03:00 +21°C° 0 mm 6 mps 756 mmHg 64%
04:00 +22°C° 0 mm 6 mps 756 mmHg 62%
05:00 +22°C° 0 mm 6 mps 756 mmHg 59%
06:00 +23°C° 0 mm 7 mps 756 mmHg 56%
07:00 +24°C° 0 mm 7 mps 756 mmHg 50%
08:00 +26°C° 0 mm 7 mps 756 mmHg 45%
09:00 +27°C° 0 mm 8 mps 757 mmHg 39%
10:00 +28°C° 0 mm 8 mps 756 mmHg 36%
11:00 +29°C° 0 mm 8 mps 756 mmHg 32%
12:00 +31°C° 0 mm 8 mps 755 mmHg 29%
13:00 +32°C° 0 mm 8 mps 755 mmHg 28%
14:00 +32°C° 0 mm 8 mps 755 mmHg 28%
15:00 +32°C° 0 mm 9 mps 755 mmHg 27%
16:00 +31°C° 0 mm 8 mps 755 mmHg 29%
17:00 +29°C° 0 mm 8 mps 755 mmHg 32%
18:00 +28°C° 0 mm 8 mps 755 mmHg 34%
19:00 +26°C° 0 mm 7 mps 755 mmHg 40%
20:00 +23°C° 0 mm 7 mps 756 mmHg 45%
21:00 +22°C° 0 mm 6 mps 757 mmHg 51%
22:00 +21°C° 0 mm 6 mps 757 mmHg 53%
23:00 +20°C° 0 mm 6 mps 757 mmHg 56%

Tomorrow, 4 August, Tuesday

Time Temperature Precipitation Wind Pressure Humidity
00:00 +19°C° 0 mm 6 mps 757 mmHg 59%
01:00 +19°C° 0 mm 6 mps 757 mmHg 58%
02:00 +17°C° 0 mm 6 mps 757 mmHg 58%
03:00 +17°C° 0 mm 6 mps 757 mmHg 57%
04:00 +17°C° 0 mm 7 mps 757 mmHg 55%
05:00 +17°C° 0 mm 7 mps 757 mmHg 53%
06:00 +18°C° 0 mm 7 mps 756 mmHg 51%
07:00 +21°C° 0 mm 7 mps 757 mmHg 45%
08:00 +23°C° 0 mm 7 mps 757 mmHg 39%
09:00 +26°C° 0 mm 7 mps 757 mmHg 33%
10:00 +27°C° 0 mm 7 mps 757 mmHg 30%
11:00 +28°C° 0 mm 7 mps 756 mmHg 28%
12:00 +30°C° 0 mm 7 mps 756 mmHg 25%
13:00 +30°C° 0 mm 7 mps 756 mmHg 25%
14:00 +30°C° 0 mm 7 mps 756 mmHg 24%
15:00 +32°C° 0 mm 7 mps 755 mmHg 23%
16:00 +30°C° 0 mm 7 mps 755 mmHg 26%
17:00 +29°C° 0 mm 7 mps 755 mmHg 29%
18:00 +28°C° 0 mm 7 mps 756 mmHg 32%
19:00 +26°C° 0 mm 6 mps 756 mmHg 37%
20:00 +24°C° 0 mm 6 mps 757 mmHg 42%
21:00 +22°C° 0 mm 6 mps 757 mmHg 47%
22:00 +21°C° 0 mm 6 mps 757 mmHg 49%
23:00 +21°C° 0 mm 6 mps 757 mmHg 51%

Day after tomorrow, 5 August, Wednesday

Time Temperature Precipitation Wind Pressure Humidity
00:00 +20°C° 0 mm 5 mps 757 mmHg 53%
01:00 +19°C° 0 mm 5 mps 757 mmHg 55%
02:00 +19°C° 0 mm 5 mps 757 mmHg 57%
03:00 +18°C° 0 mm 4 mps 757 mmHg 59%
04:00 +19°C° 0 mm 4 mps 757 mmHg 58%
05:00 +19°C° 0 mm 4 mps 757 mmHg 57%
06:00 +19°C° 0 mm 3 mps 757 mmHg 55%
07:00 +22°C° 0 mm 3 mps 757 mmHg 47%
08:00 +26°C° 0 mm 3 mps 757 mmHg 38%
09:00 +29°C° 0 mm 3 mps 757 mmHg 30%
10:00 +30°C° 0 mm 3 mps 757 mmHg 27%
11:00 +31°C° 0 mm 3 mps 757 mmHg 24%
12:00 +34°C° 0 mm 3 mps 757 mmHg 22%
13:00 +34°C° 0 mm 3 mps 756 mmHg 21%
14:00 +34°C° 0 mm 3 mps 756 mmHg 21%
15:00 +34°C° 0 mm 4 mps 756 mmHg 21%
16:00 +33°C° 0 mm 3 mps 756 mmHg 25%
17:00 +30°C° 0 mm 3 mps 756 mmHg 30%
18:00 +29°C° 0 mm 3 mps 756 mmHg 34%
19:00 +27°C° 0 mm 2 mps 757 mmHg 39%
20:00 +25°C° 0 mm 1 mps 757 mmHg 44%
21:00 +21°C° 0 mm 0 mps 758 mmHg 50%
22:00 +23°C° 0 mm 1 mps 758 mmHg 50%
23:00 +23°C° 0 mm 1 mps 758 mmHg 51%

6 August, Thursday

Time Temperature Precipitation Wind Pressure Humidity
00:00 +22°C° 0 mm 1 mps 758 mmHg 52%
01:00 +22°C° 0 mm 1 mps 758 mmHg 53%
02:00 +21°C° 0 mm 2 mps 758 mmHg 55%
03:00 +21°C° 0 mm 2 mps 758 mmHg 56%
04:00 +21°C° 0 mm 2 mps 758 mmHg 55%
05:00 +21°C° 0 mm 2 mps 758 mmHg 54%
06:00 +23°C° 0 mm 2 mps 758 mmHg 52%
07:00 +25°C° 0 mm 2 mps 759 mmHg 46%
08:00 +28°C° 0 mm 2 mps 759 mmHg 40%
09:00 +30°C° 0 mm 2 mps 759 mmHg 34%
10:00 +31°C° 0 mm 2 mps 759 mmHg 32%
11:00 +33°C° 0 mm 3 mps 758 mmHg 29%
12:00 +34°C° 0 mm 3 mps 758 mmHg 27%
13:00 +34°C° 0 mm 4 mps 758 mmHg 27%
14:00 +34°C° 0 mm 4 mps 758 mmHg 28%
15:00 +34°C° 0 mm 5 mps 758 mmHg 29%
16:00 +32°C° 0 mm 4 mps 758 mmHg 33%
17:00 +30°C° 0 mm 4 mps 758 mmHg 37%
18:00 +29°C° 0 mm 4 mps 759 mmHg 41%
19:00 +27°C° 0 mm 3 mps 759 mmHg 47%
20:00 +25°C° 0 mm 2 mps 759 mmHg 53%
21:00 +24°C° 0 mm 2 mps 760 mmHg 59%
22:00 +23°C° 0 mm 1 mps 760 mmHg 59%
23:00 +23°C° 0 mm 1 mps 760 mmHg 60%

7 August, Friday

Time Temperature Precipitation Wind Pressure Humidity
00:00 +23°C° 0 mm 1 mps 760 mmHg 60%
01:00 +22°C° 0 mm 1 mps 760 mmHg 61%
02:00 +21°C° 0 mm 2 mps 760 mmHg 62%
03:00 +21°C° 0 mm 2 mps 759 mmHg 62%
04:00 +21°C° 0 mm 2 mps 760 mmHg 60%
05:00 +23°C° 0 mm 2 mps 760 mmHg 57%
06:00 +23°C° 0 mm 2 mps 760 mmHg 55%
07:00 +26°C° 0 mm 2 mps 760 mmHg 50%
08:00 +28°C° 0 mm 2 mps 760 mmHg 44%
09:00 +31°C° 0 mm 2 mps 760 mmHg 39%
10:00 +32°C° 0 mm 2 mps 760 mmHg 38%
11:00 +34°C° 0 mm 3 mps 760 mmHg 37%
12:00 +35°C° 0 mm 3 mps 759 mmHg 36%
13:00 +35°C° 0 mm 4 mps 759 mmHg 39%
14:00 +34°C° 0 mm 4 mps 759 mmHg 42%
15:00 +34°C° 0 mm 4 mps 758 mmHg 45%
16:00 +33°C° 0 mm 4 mps 759 mmHg 52%
17:00 +30°C° 0 mm 3 mps 759 mmHg 60%
18:00 +29°C° 0 mm 3 mps 759 mmHg 67%
19:00 +27°C° 0 mm 2 mps 759 mmHg 72%
20:00 +26°C° 0 mm 2 mps 760 mmHg 78%
21:00 +25°C° 0 mm 1 mps 760 mmHg 83%
22:00 +24°C° 0 mm 1 mps 760 mmHg 85%
23:00 +22°C° 0 mm 0 mps 760 mmHg 86%

8 August, Saturday

Time Temperature Precipitation Wind Pressure Humidity
00:00 +22°C° 0 mm 0 mps 760 mmHg 87%
01:00 +23°C° 0 mm 1 mps 760 mmHg 87%
02:00 +23°C° 0 mm 1 mps 760 mmHg 87%
03:00 +23°C° 0 mm 1 mps 760 mmHg 88%
04:00 +24°C° 0 mm 1 mps 760 mmHg 84%
05:00 +24°C° 0 mm 1 mps 760 mmHg 80%
06:00 +25°C° 0 mm 1 mps 760 mmHg 77%
07:00 +27°C° 0 mm 1 mps 760 mmHg 67%
08:00 +29°C° 0 mm 2 mps 760 mmHg 56%
09:00 +32°C° 0 mm 2 mps 760 mmHg 46%
10:00 +35°C° 0 mm 2 mps 760 mmHg 41%
11:00 +37°C° 0 mm 2 mps 760 mmHg 35%
12:00 +39°C° 0 mm 3 mps 759 mmHg 30%
13:00 +39°C° 0 mm 3 mps 759 mmHg 29%
14:00 +40°C° 0 mm 4 mps 758 mmHg 29%
15:00 +41°C° 0 mm 4 mps 758 mmHg 28%
16:00 +38°C° 0 mm 4 mps 758 mmHg 31%
17:00 +37°C° 0 mm 4 mps 758 mmHg 35%
18:00 +36°C° 0 mm 4 mps 758 mmHg 38%
19:00 +34°C° 0.1 mm 4 mps 758 mmHg 43%
20:00 +32°C° 0.1 mm 4 mps 758 mmHg 48%
21:00 +30°C° 0.1 mm 4 mps 759 mmHg 53%
22:00 +29°C° 0 mm 3 mps 759 mmHg 55%
23:00 +28°C° 0 mm 3 mps 758 mmHg 57%
Show more